Flag for India Weather past 2 weeks in Sultanpur, Uttar Pradesh, India

Now
106 °F

Haze.


Feels Like: 102 °F
Forecast: 79 / 110 °F
Wind: 5 mph from West

Location: Varanasi / Babatpur

Current Time: May 5, 2015 at 1:55:52 PM

Latest Report: May 5, 2015 at 1:00 PM


Visibility: 3 mi

Pressure: 29.71 "Hg

Humidity: 14%

Dew point: 48 °F

Location of SultanpurLocation

Historic Weather in Sultanpur — Graph

°F

Sultanpur temperature yesterday

Maximum temperature yesterday: 106 °F (at 2:00 PM)
Minimum temperature yesterday: 79 °F (at 5:00 AM)
Average temperature yesterday: 93 °F

Past Weeks' High & Low Weather Summary

 TemperatureHumidityPressure
High106 °F (May 4, 2:00 PM)94% (Apr 29, 12:00 AM)29.89 "Hg (Apr 29, 12:00 AM)
Low70 °F (Apr 28, 12:00 PM)10% (May 4, 2:00 PM)29.59 "Hg (Apr 21, 6:00 PM)
Average88 °F50%29.72 "Hg
* Reported Apr 20 11:00 AM — May 5 10:00 AM, Sultanpur, Weather by CustomWeather, © 2015

Note: Actual official high and low records may vary slightly from our data, if they occured in-between our weather recording intervals... More about our weather records

Advertising

Sultanpur weather history for previous 24 hours

 ConditionsComfort  
Time TempWeatherWind HumidityBarometerVisibility
10:00 AM
Tue, May 5
97 °FHaze.3 mph25%29.74 "Hg2 mi
8:00 AM82 °FHaze.2 mph51%29.74 "Hg1 mi
7:00 AM79 °FHaze.3 mph45%29.74 "Hg1 mi
6:00 AM73 °FHaze.1 mph61%29.74 "Hg1 mi
5:00 AM77 °FHaze.No wind54%29.71 "Hg2 mi
4:00 AM79 °FHaze.2 mph54%29.71 "Hg2 mi
12:00 AM88 °FHaze.2 mph31%29.74 "Hg2 mi
11:00 PM
Mon, May 4
90 °FHaze.2 mph27%29.74 "Hg2 mi
10:00 PM90 °FHaze.3 mph27%29.74 "Hg2 mi
9:00 PM93 °FHaze.5 mph23%29.74 "Hg2 mi
8:00 PM93 °FHaze.2 mph24%29.71 "Hg2 mi
7:00 PM95 °FHaze.No wind25%29.71 "Hg2 mi
6:00 PM99 °FHaze.2 mph25%29.68 "Hg2 mi
4:00 PM104 °FClear.7 mph12%29.68 "Hg4 mi
3:00 PM106 °FClear.6 mph11%29.71 "Hg4 mi
2:00 PM106 °FClear.7 mph10%29.71 "Hg4 mi
1:00 PM104 °FHaze.3 mph15%29.74 "Hg3 mi
Weather by CustomWeather, © 2015

See weather overviewHow to use our weather pages